Weather History for Lewisburg, WV

Change the Weather History Date:

Friday, September 20, 2013

  Actual Average Record
Temperature  
Mean Temperature 65 °F -  
Max Temperature 71 °F 76 °F 91 °F (1978)
Min Temperature 59 °F 52 °F 37 °F (1991)
Growing Degree Days 15 (Base 50)    
Moisture  
Dew Point 60 °F    
Average Humidity 89    
Maximum Humidity 94    
Minimum Humidity 69    
Precipitation  
Precipitation 1.95 in - - ()
Sea Level Pressure  
Sea Level Pressure 30.09 in    
Wind  
Wind Speed 0 mph (East)    
Max Wind Speed 7 mph    
Max Gust Speed -    
Visibility 6 miles    
Events Rain    
Averages and records for this station are not official NWS values.
T = Trace of Precipitation, MM = Missing Value Source: NWS Daily Summary

Daily Weather History Graph

Daily Weather History Graph

Search for Another Location

Airport:

Trip Planner

Search our weather history database for the weather conditions in past years. The results will help you decide how hot, cold, wet, or windy it might be!

Date:

Astronomy

Sep. 20, 2013 Rise Set
Actual Time 7:07 AM EDT 7:21 PM EDT
Civil Twilight 6:41 AM EDT 7:47 PM EDT
Nautical Twilight 6:10 AM EDT 8:18 PM EDT
Astronomical Twilight 5:39 AM EDT 8:49 PM EDT
Moon 7:56 PM EDT (9/20) 8:18 AM EDT (9/20)
Length of Visible Light 13h 05m
Length of Day
12h 13m
Full, 98% of the Moon is Illuminated
Sep 20
Full
Sep 26
Last Quarter
Oct 4
New
Oct 11
First Quarter
Oct 18
Full

Hourly Weather History & Observations

Time (EDT) Temp. Dew Point Humidity Pressure Visibility Wind Dir Wind Speed Gust Speed Precip Events Conditions
12:15 AM 60.8 °F 59.0 °F 94% 30.15 in 2.5 mi Calm Calm - N/A   Overcast
12:35 AM 60.8 °F 59.0 °F 94% 30.15 in 1.8 mi Calm Calm - N/A   Overcast
12:55 AM 60.8 °F 59.0 °F 94% 30.15 in 2.5 mi Calm Calm - N/A   Overcast
1:15 AM 60.8 °F 59.0 °F 94% 30.15 in 4.0 mi Calm Calm - N/A   Overcast
1:35 AM 60.8 °F 59.0 °F 94% 30.15 in 3.0 mi Calm Calm - N/A   Overcast
1:55 AM 60.8 °F 59.0 °F 94% 30.15 in 3.0 mi Calm Calm - N/A   Overcast
2:15 AM 60.8 °F 59.0 °F 94% 30.15 in 2.5 mi Calm Calm - N/A   Overcast
2:35 AM 60.8 °F 59.0 °F 94% 30.14 in 2.5 mi Calm Calm - N/A   Overcast
2:55 AM 60.8 °F 59.0 °F 94% 30.14 in 3.0 mi Calm Calm - N/A   Overcast
3:15 AM 60.8 °F 59.0 °F 94% 30.13 in 3.0 mi Calm Calm - N/A   Overcast
3:35 AM 60.8 °F 59.0 °F 94% 30.13 in 4.0 mi Calm Calm - N/A   Overcast
3:55 AM 60.8 °F 59.0 °F 94% 30.13 in 5.0 mi Calm Calm - N/A   Overcast
4:15 AM 60.8 °F 59.0 °F 94% 30.13 in 5.0 mi Calm Calm - N/A   Overcast
4:35 AM 60.8 °F 59.0 °F 94% 30.13 in 5.0 mi Calm Calm - N/A   Overcast
4:55 AM 60.8 °F 59.0 °F 94% 30.12 in 3.0 mi Calm Calm - N/A   Overcast
5:15 AM 60.8 °F 59.0 °F 94% 30.12 in 2.5 mi Calm Calm - N/A Rain Light Rain
5:35 AM 60.8 °F 59.0 °F 94% 30.12 in 1.5 mi Calm Calm - 0.06 in Rain Heavy Rain
5:55 AM 60.8 °F 59.0 °F 94% 30.11 in 0.8 mi North 3.5 mph - 0.21 in Rain Heavy Rain
6:15 AM 60.8 °F 59.0 °F 94% 30.12 in 2.0 mi North 6.9 mph - 0.06 in Rain Heavy Rain
6:35 AM 60.8 °F 59.0 °F 94% 30.12 in 2.0 mi Calm Calm - 0.13 in Rain Light Rain
6:55 AM 60.8 °F 59.0 °F 94% 30.12 in 1.8 mi Calm Calm - 0.19 in Rain Rain
7:15 AM 60.8 °F 59.0 °F 94% 30.12 in 2.0 mi Calm Calm - 0.02 in Rain Light Rain
7:35 AM 60.8 °F 59.0 °F 94% 30.12 in 1.2 mi Calm Calm - 0.07 in Rain Rain
7:55 AM 60.8 °F 59.0 °F 94% 30.12 in 1.8 mi Calm Calm - 0.13 in Rain Rain
8:15 AM 60.8 °F 59.0 °F 94% 30.12 in 4.0 mi Calm Calm - 0.01 in Rain Light Rain
8:35 AM 60.8 °F 59.0 °F 94% 30.12 in 1.5 mi Calm Calm - 0.16 in Rain Heavy Rain
8:55 AM 60.8 °F 59.0 °F 94% 30.13 in 1.5 mi Calm Calm - 0.34 in Rain Heavy Rain
9:15 AM 60.8 °F 59.0 °F 94% 30.13 in 1.2 mi WSW 3.5 mph - 0.18 in Rain Heavy Rain
9:35 AM 60.8 °F 59.0 °F 94% 30.13 in 2.5 mi Calm Calm - 0.35 in Rain Heavy Rain
9:55 AM 62.6 °F 60.8 °F 94% 30.12 in 3.0 mi Calm Calm - 0.44 in Rain Rain
10:15 AM 62.6 °F 60.8 °F 94% 30.13 in 3.0 mi Calm Calm - 0.05 in Rain Rain
10:35 AM 62.6 °F 60.8 °F 94% 30.13 in 2.5 mi Calm Calm - 0.12 in Rain Rain
10:55 AM 62.6 °F 60.8 °F 94% 30.13 in 3.0 mi Calm Calm - 0.17 in Rain Light Rain
11:15 AM 62.6 °F 60.8 °F 94% 30.13 in 4.0 mi Calm Calm - 0.03 in Rain Rain
11:35 AM 62.6 °F 60.8 °F 94% 30.13 in 4.0 mi Calm Calm - 0.07 in Rain Rain
11:55 AM 62.6 °F 60.8 °F 94% 30.13 in 5.0 mi Calm Calm - 0.11 in Rain Rain
12:15 PM 62.6 °F 60.8 °F 94% 30.12 in 2.0 mi Calm Calm - 0.08 in Rain Heavy Rain
12:35 PM 62.6 °F 60.8 °F 94% 30.12 in 3.0 mi SW 4.6 mph - 0.16 in Rain Rain
12:55 PM 62.6 °F 60.8 °F 94% 30.12 in 4.0 mi Calm Calm - 0.18 in Rain Light Rain
1:15 PM 62.6 °F 60.8 °F 94% 30.12 in 2.0 mi Calm Calm - 0.07 in Rain Rain
1:35 PM 62.6 °F 60.8 °F 94% 30.11 in 3.0 mi Calm Calm - 0.17 in Rain Rain
1:55 PM 62.6 °F 60.8 °F 94% 30.10 in 7.0 mi Calm Calm - 0.18 in   Overcast
2:15 PM 64.4 °F 62.6 °F 94% 30.09 in 10.0 mi Calm Calm - N/A   Overcast
2:35 PM 66.2 °F 60.8 °F 83% 30.08 in 10.0 mi Calm Calm - N/A   Overcast
2:55 PM 68.0 °F 60.8 °F 78% 30.07 in 10.0 mi East 3.5 mph - N/A   Mostly Cloudy
3:15 PM 69.8 °F 62.6 °F 78% 30.06 in 10.0 mi Calm Calm - N/A   Mostly Cloudy
3:35 PM 69.8 °F 60.8 °F 73% 30.06 in 10.0 mi Calm Calm - N/A   Mostly Cloudy
3:55 PM 71.6 °F 60.8 °F 69% 30.05 in 10.0 mi Calm Calm - N/A   Scattered Clouds
4:15 PM 69.8 °F 60.8 °F 73% 30.05 in 10.0 mi Calm Calm - N/A   Scattered Clouds
4:35 PM 69.8 °F 60.8 °F 73% 30.05 in 10.0 mi Calm Calm - N/A   Mostly Cloudy
4:55 PM 69.8 °F 60.8 °F 73% 30.04 in 10.0 mi Calm Calm - N/A   Scattered Clouds
5:15 PM 69.8 °F 60.8 °F 73% 30.04 in 10.0 mi Calm Calm - N/A   Clear
5:35 PM 69.8 °F 60.8 °F 73% 30.03 in 10.0 mi Calm Calm - N/A   Clear
5:55 PM 69.8 °F 62.6 °F 78% 30.03 in 10.0 mi Calm Calm - N/A   Clear
6:15 PM 69.8 °F 60.8 °F 73% 30.03 in 10.0 mi Calm Calm - N/A   Clear
6:35 PM 69.8 °F 62.6 °F 78% 30.03 in 10.0 mi Calm Calm - N/A   Clear
6:55 PM 68.0 °F 60.8 °F 78% 30.03 in 10.0 mi Calm Calm - N/A   Scattered Clouds
7:15 PM 68.0 °F 60.8 °F 78% 30.02 in 10.0 mi ESE 3.5 mph - N/A   Mostly Cloudy
7:35 PM 64.4 °F 60.8 °F 88% 30.03 in 10.0 mi ESE 3.5 mph - N/A   Scattered Clouds
7:55 PM 64.4 °F 60.8 °F 88% 30.03 in 10.0 mi Calm Calm - N/A   Clear
8:15 PM 64.4 °F 60.8 °F 88% 30.04 in 10.0 mi Calm Calm - N/A   Clear
8:35 PM 62.6 °F 60.8 °F 94% 30.04 in 10.0 mi Calm Calm - N/A   Scattered Clouds
8:55 PM 62.6 °F 60.8 °F 94% 30.04 in 10.0 mi Calm Calm - N/A   Mostly Cloudy
9:15 PM 62.6 °F 59.0 °F 88% 30.04 in 10.0 mi Calm Calm - N/A   Mostly Cloudy
9:35 PM 62.6 °F 59.0 °F 88% 30.04 in 10.0 mi Calm Calm - N/A   Scattered Clouds
9:55 PM 62.6 °F 59.0 °F 88% 30.03 in 10.0 mi Calm Calm - N/A   Clear
10:15 PM 62.6 °F 59.0 °F 88% 30.03 in 10.0 mi Calm Calm - N/A   Scattered Clouds
10:35 PM 60.8 °F 57.2 °F 88% 30.03 in 5.0 mi Calm Calm - N/A   Scattered Clouds
10:55 PM 60.8 °F 59.0 °F 94% 30.03 in 7.0 mi Calm Calm - N/A   Clear
11:15 PM 60.8 °F 57.2 °F 88% 30.02 in 7.0 mi Calm Calm - N/A   Mostly Cloudy
11:35 PM 59.0 °F 57.2 °F 94% 30.02 in 5.0 mi Calm Calm - N/A   Mostly Cloudy
11:55 PM 59.0 °F 57.2 °F 94% 30.02 in 4.0 mi Calm Calm - N/A   Overcast